Tracking 31027 objects as of 19-Jul-2025
HD Live streaming from Space Station
objects crossing your sky now

STARLINK-5328

Track STARLINK-5328 now!
10-day predictions
STARLINK-5328 is classified as:


NORAD ID: 55657
Int'l Code: 2023-021AF
Perigee: 577.1 km
Apogee: 581.3 km
Inclination: 70.0 °
Period: 96.1 minutes
Semi major axis: 6950 km
RCS: Unknown
Launch date: February 17, 2023
Source: United States (US)
Launch site: AIR FORCE WESTERN TEST RANGE (AFWTR)
Your satellite tracking list
COSMOS 1275 DEB
Track 1 satellite(s)




NASA's NSSDC Master Catalog

Two Line Element Set (TLE):
1 55657U 23021AF  25199.58316213 -.00000232  00000-0 -11647-4 0  9993
2 55657  69.9992  34.8820 0002965 267.0979  92.9841 14.98331598133912
Source of the keplerian elements: AFSPC